Hourly Weather Armawir

Today, 3 July, Friday

Time Temperature Precipitation Wind Pressure Humidity
00:00 +21°C° 0.5 mm 2 mps 688 mmHg 69%
01:00 +20°C° 0 mm 2 mps 688 mmHg 69%
02:00 +21°C° 0 mm 1 mps 688 mmHg 70%
03:00 +20°C° 0 mm 1 mps 687 mmHg 70%
04:00 +21°C° 0 mm 1 mps 688 mmHg 68%
05:00 +21°C° 0 mm 1 mps 688 mmHg 67%
06:00 +22°C° 0 mm 1 mps 688 mmHg 65%
07:00 +23°C° 0 mm 1 mps 688 mmHg 59%
08:00 +25°C° 0 mm 1 mps 688 mmHg 53%
09:00 +27°C° 0 mm 1 mps 689 mmHg 46%
10:00 +28°C° 0.1 mm 1 mps 689 mmHg 43%
11:00 +29°C° 0.1 mm 2 mps 689 mmHg 39%
12:00 +31°C° 0.1 mm 2 mps 689 mmHg 36%
13:00 +31°C° 0.1 mm 2 mps 689 mmHg 34%
14:00 +32°C° 0.1 mm 2 mps 688 mmHg 32%
15:00 +34°C° 0 mm 2 mps 688 mmHg 30%
16:00 +32°C° 0 mm 2 mps 688 mmHg 31%
17:00 +32°C° 0 mm 2 mps 688 mmHg 33%
18:00 +32°C° 0 mm 2 mps 688 mmHg 34%
19:00 +30°C° 0 mm 2 mps 689 mmHg 40%
20:00 +28°C° 0 mm 2 mps 689 mmHg 45%
21:00 +26°C° 0 mm 2 mps 689 mmHg 51%
22:00 +25°C° 0 mm 2 mps 689 mmHg 54%
23:00 +24°C° 0 mm 2 mps 689 mmHg 56%

Tomorrow, 4 July, Saturday

Time Temperature Precipitation Wind Pressure Humidity
00:00 +23°C° 0 mm 1 mps 689 mmHg 58%
01:00 +23°C° 0 mm 2 mps 688 mmHg 60%
02:00 +21°C° 0 mm 2 mps 688 mmHg 62%
03:00 +20°C° 0 mm 2 mps 688 mmHg 64%
04:00 +21°C° 0 mm 2 mps 688 mmHg 63%
05:00 +23°C° 0 mm 2 mps 688 mmHg 61%
06:00 +23°C° 0 mm 2 mps 689 mmHg 60%
07:00 +25°C° 0 mm 1 mps 688 mmHg 54%
08:00 +26°C° 0 mm 1 mps 688 mmHg 49%
09:00 +28°C° 0 mm 1 mps 688 mmHg 43%
10:00 +30°C° 0.1 mm 1 mps 688 mmHg 40%
11:00 +31°C° 0.1 mm 1 mps 688 mmHg 36%
12:00 +33°C° 0.1 mm 1 mps 688 mmHg 33%
13:00 +33°C° 0 mm 1 mps 688 mmHg 30%
14:00 +34°C° 0 mm 1 mps 688 mmHg 27%
15:00 +35°C° 0 mm 1 mps 688 mmHg 25%
16:00 +35°C° 0 mm 2 mps 688 mmHg 28%
17:00 +33°C° 0 mm 3 mps 688 mmHg 32%
18:00 +32°C° 0 mm 4 mps 687 mmHg 36%
19:00 +29°C° 0.5 mm 3 mps 687 mmHg 43%
20:00 +27°C° 0.5 mm 3 mps 687 mmHg 51%
21:00 +25°C° 0.5 mm 3 mps 687 mmHg 58%
22:00 +24°C° 0.3 mm 3 mps 687 mmHg 60%
23:00 +24°C° 0.3 mm 3 mps 687 mmHg 61%

Day after tomorrow, 5 July, Sunday

Time Temperature Precipitation Wind Pressure Humidity
00:00 +23°C° 0.3 mm 2 mps 687 mmHg 62%
01:00 +23°C° 0 mm 2 mps 686 mmHg 63%
02:00 +21°C° 0 mm 2 mps 686 mmHg 64%
03:00 +21°C° 0 mm 2 mps 686 mmHg 65%
04:00 +21°C° 0 mm 2 mps 686 mmHg 64%
05:00 +23°C° 0 mm 1 mps 686 mmHg 63%
06:00 +23°C° 0 mm 1 mps 686 mmHg 61%
07:00 +25°C° 0 mm 1 mps 686 mmHg 55%
08:00 +26°C° 0 mm 1 mps 686 mmHg 49%
09:00 +28°C° 0 mm 1 mps 686 mmHg 43%
10:00 +29°C° 0.1 mm 1 mps 686 mmHg 40%
11:00 +31°C° 0.1 mm 2 mps 686 mmHg 37%
12:00 +32°C° 0.1 mm 2 mps 686 mmHg 34%
13:00 +34°C° 0.1 mm 2 mps 686 mmHg 32%
14:00 +34°C° 0.1 mm 3 mps 685 mmHg 30%
15:00 +35°C° 0.1 mm 3 mps 685 mmHg 29%
16:00 +34°C° 0 mm 4 mps 685 mmHg 31%
17:00 +34°C° 0 mm 4 mps 685 mmHg 33%
18:00 +33°C° 0 mm 5 mps 685 mmHg 35%
19:00 +30°C° 0.4 mm 4 mps 685 mmHg 43%
20:00 +27°C° 0.4 mm 3 mps 685 mmHg 51%
21:00 +25°C° 0.4 mm 2 mps 685 mmHg 59%
22:00 +24°C° 0.1 mm 2 mps 685 mmHg 61%
23:00 +24°C° 0.1 mm 1 mps 685 mmHg 62%

6 July, Monday

Time Temperature Precipitation Wind Pressure Humidity
00:00 +23°C° 0.1 mm 1 mps 685 mmHg 64%
01:00 +22°C° 0 mm 1 mps 685 mmHg 64%
02:00 +22°C° 0 mm 1 mps 685 mmHg 64%
03:00 +21°C° 0 mm 1 mps 685 mmHg 64%
04:00 +22°C° 0 mm 1 mps 685 mmHg 62%
05:00 +22°C° 0 mm 1 mps 685 mmHg 59%
06:00 +23°C° 0 mm 1 mps 685 mmHg 57%
07:00 +25°C° 0 mm 1 mps 685 mmHg 51%
08:00 +26°C° 0 mm 1 mps 685 mmHg 45%
09:00 +28°C° 0 mm 1 mps 686 mmHg 39%
10:00 +29°C° 0 mm 1 mps 685 mmHg 35%
11:00 +31°C° 0 mm 2 mps 685 mmHg 32%
12:00 +32°C° 0 mm 2 mps 685 mmHg 28%
13:00 +34°C° 0 mm 2 mps 685 mmHg 27%
14:00 +35°C° 0 mm 3 mps 685 mmHg 26%
15:00 +35°C° 0 mm 3 mps 685 mmHg 25%
16:00 +35°C° 0 mm 3 mps 685 mmHg 27%
17:00 +34°C° 0 mm 4 mps 685 mmHg 28%
18:00 +34°C° 0 mm 4 mps 685 mmHg 30%
19:00 +32°C° 0 mm 4 mps 685 mmHg 35%
20:00 +28°C° 0 mm 3 mps 685 mmHg 40%
21:00 +26°C° 0 mm 3 mps 685 mmHg 46%
22:00 +25°C° 0 mm 2 mps 685 mmHg 47%
23:00 +25°C° 0 mm 2 mps 685 mmHg 49%

7 July, Tuesday

Time Temperature Precipitation Wind Pressure Humidity
00:00 +24°C° 0 mm 1 mps 685 mmHg 50%
01:00 +23°C° 0 mm 1 mps 684 mmHg 51%
02:00 +23°C° 0 mm 1 mps 684 mmHg 52%
03:00 +22°C° 0 mm 1 mps 684 mmHg 53%
04:00 +23°C° 0 mm 1 mps 684 mmHg 52%
05:00 +23°C° 0 mm 1 mps 685 mmHg 52%
06:00 +24°C° 0 mm 1 mps 685 mmHg 51%
07:00 +26°C° 0 mm 1 mps 685 mmHg 46%
08:00 +27°C° 0 mm 1 mps 685 mmHg 40%
09:00 +29°C° 0 mm 1 mps 685 mmHg 35%
10:00 +31°C° 0 mm 1 mps 685 mmHg 32%
11:00 +32°C° 0 mm 2 mps 685 mmHg 29%
12:00 +34°C° 0 mm 2 mps 685 mmHg 26%
13:00 +35°C° 0 mm 2 mps 685 mmHg 25%
14:00 +36°C° 0 mm 2 mps 685 mmHg 24%
15:00 +36°C° 0 mm 2 mps 685 mmHg 23%
16:00 +36°C° 0 mm 2 mps 685 mmHg 24%
17:00 +36°C° 0 mm 2 mps 685 mmHg 25%
18:00 +36°C° 0 mm 2 mps 685 mmHg 26%
19:00 +32°C° 0 mm 2 mps 685 mmHg 32%
20:00 +30°C° 0 mm 2 mps 685 mmHg 37%
21:00 +28°C° 0 mm 2 mps 685 mmHg 42%
22:00 +27°C° 0 mm 2 mps 685 mmHg 44%
23:00 +26°C° 0 mm 1 mps 685 mmHg 46%

8 July, Wednesday

Time Temperature Precipitation Wind Pressure Humidity
00:00 +26°C° 0 mm 1 mps 684 mmHg 48%
01:00 +25°C° 0 mm 1 mps 684 mmHg 49%
02:00 +25°C° 0 mm 1 mps 684 mmHg 51%
03:00 +24°C° 0 mm 2 mps 684 mmHg 52%
04:00 +25°C° 0 mm 2 mps 684 mmHg 52%
05:00 +25°C° 0 mm 2 mps 684 mmHg 52%
06:00 +26°C° 0 mm 2 mps 684 mmHg 52%
07:00 +27°C° 0 mm 2 mps 684 mmHg 46%
08:00 +29°C° 0 mm 1 mps 685 mmHg 41%
09:00 +31°C° 0 mm 1 mps 685 mmHg 35%
10:00 +33°C° 0 mm 1 mps 685 mmHg 32%
11:00 +34°C° 0 mm 1 mps 685 mmHg 29%
12:00 +36°C° 0 mm 2 mps 685 mmHg 25%
13:00 +36°C° 0 mm 3 mps 684 mmHg 26%
14:00 +36°C° 0 mm 4 mps 684 mmHg 27%
15:00 +36°C° 0 mm 5 mps 684 mmHg 27%
16:00 +34°C° 0.1 mm 5 mps 684 mmHg 32%
17:00 +33°C° 0.1 mm 5 mps 683 mmHg 36%
18:00 +30°C° 0.1 mm 5 mps 683 mmHg 40%
19:00 +29°C° 0 mm 5 mps 683 mmHg 44%
20:00 +27°C° 0 mm 4 mps 684 mmHg 47%
21:00 +25°C° 0 mm 3 mps 684 mmHg 51%
22:00 +25°C° 0 mm 3 mps 684 mmHg 51%
23:00 +25°C° 0 mm 3 mps 684 mmHg 51%
Show more